KA8DUX-2 Weather Reports


Display with metric or nautical units.
time (UTC)temp
F
wind
direction
speed
MPH
gust
MPH
rain 1hr
in
rain 24hr
in
rain mn
in
humidity
%
barometer
mb
20260904003605 73 129 0.0 0.0 0.00 0.03 0.03 93 1013.3
20260904003100 73 121 0.0 0.0 0.00 0.03 0.03 93 1013.2
20260904002556 73 116 0.0 0.0 0.00 0.03 0.03 92 1013.1
20260904002050 73 119 0.0 0.0 0.00 0.03 0.03 92 1013.1
20260904001546 73 136 0.0 0.0 0.00 0.03 0.03 92 1012.8
20260904001044 73 126 0.0 0.0 0.00 0.03 0.03 91 1012.8
20260904000539 74 125 0.0 0.0 0.00 0.03 0.03 91 1012.9
20260904000035 74 126 0.0 0.0 0.00 0.03 0.03 90 1012.9
20260903235530 74 135 0.0 0.0 0.00 0.03 0.03 90 1012.9
20260903235026 74 113 0.0 0.0 0.00 0.03 0.03 90 1012.9
20260903234521 75 125 0.0 0.0 0.00 0.03 0.03 89 1012.7
20260903234016 75 136 0.0 0.0 0.00 0.03 0.03 89 1013.0
20260903233512 75 128 0.0 0.0 0.00 0.03 0.03 90 1013.2
20260903233008 75 145 0.0 0.0 0.00 0.03 0.03 89 1013.0
20260903232503 75 128 0.0 0.0 0.00 0.03 0.03 89 1013.0
20260903232003 75 126 0.0 0.0 0.00 0.03 0.03 89 1013.0
20260903231457 75 130 0.0 0.0 0.00 0.03 0.03 88 1013.0
20260903230952 75 123 0.0 0.0 0.00 0.03 0.03 88 1012.9
20260903230448 75 123 0.0 0.0 0.00 0.03 0.03 88 1012.6
20260903225944 76 117 0.0 0.0 0.00 0.03 0.03 88 1012.8
20260903225439 76 138 3.0 3.0 0.00 0.03 0.03 87 1012.5
20260903224935 76 139 1.0 1.0 0.00 0.03 0.03 86 1012.6
20260903224431 77 141 0.0 0.0 0.00 0.03 0.03 85 1012.6
20260903223927 77 141 0.0 0.0 0.00 0.03 0.03 85 1012.6
20260903223426 78 133 0.0 1.0 0.00 0.03 0.03 84 1012.6
20260903222919 77 135 1.0 1.0 0.00 0.03 0.03 85 1012.7
20260903222415 77 195 0.0 1.0 0.00 0.03 0.03 86 1012.9
20260903221909 77 215 2.0 3.0 0.00 0.03 0.03 87 1012.8
20260903221409 77 129 0.0 1.0 0.00 0.03 0.03 87 1012.4
20260903220906 76 125 0.0 1.0 0.00 0.03 0.03 88 1012.8
20260903220401 76 164 2.0 2.0 0.00 0.03 0.03 88 1012.8
20260903215858 76 145 1.0 2.0 0.00 0.03 0.03 87 1012.7
20260903215355 77 140 0.0 0.0 0.00 0.03 0.03 87 1012.9
20260903214853 77 118 0.0 1.0 0.00 0.03 0.03 87 1012.8
20260903214349 77 91 2.0 2.0 0.00 0.03 0.03 87 1013.2
20260903213849 77 241 1.0 1.0 0.00 0.03 0.03 87 1013.2
20260903213343 76 110 3.0 3.0 0.00 0.03 0.03 88 1013.3
20260903212840 76 305 1.0 2.0 0.00 0.03 0.03 90 1013.3
20260903212336 76 118 2.0 2.0 0.00 0.03 0.03 91 1013.1
20260903211835 76 343 0.0 1.0 0.00 0.03 0.03 91 1012.9
20260903211331 76 161 1.0 2.0 0.00 0.03 0.03 91 1013.0
20260903210827 76 188 1.0 2.0 0.00 0.03 0.03 93 1012.8
20260903210322 76 101 1.0 1.0 0.00 0.03 0.03 94 1012.6
20260903205821 76 98 0.0 0.0 0.00 0.03 0.03 95 1012.7
20260903205316 76 126 0.0 0.0 0.00 0.03 0.03 95 1012.4
20260903204811 76 130 0.0 0.0 0.00 0.03 0.03 94 1012.2
20260903204307 76 142 1.0 1.0 0.00 0.03 0.03 95 1012.5
20260903203803 76 119 0.0 0.0 0.00 0.03 0.03 95 1012.6
20260903203258 76 145 0.0 0.0 0.00 0.03 0.03 94 1012.7
20260903202757 77 126 0.0 0.0 0.00 0.03 0.03 94 1012.8
20260903202254 77 125 0.0 0.0 0.00 0.03 0.03 93 1013.3
20260903201752 77 125 0.0 0.0 0.00 0.03 0.03 93 1013.4
20260903201249 77 128 0.0 0.0 0.00 0.03 0.03 93 1013.3
20260903200747 77 132 0.0 0.0 0.00 0.03 0.03 91 1013.2
20260903200243 77 126 0.0 0.0 0.00 0.03 0.03 91 1013.2
20260903195737 77 125 0.0 0.0 0.00 0.03 0.03 90 1013.1
20260903195234 78 130 0.0 0.0 0.00 0.03 0.03 90 1013.2
20260903194733 78 137 0.0 0.0 0.00 0.03 0.03 91 1013.1
20260903194230 77 101 1.0 1.0 0.00 0.03 0.03 90 1013.3
20260903193725 77 123 0.0 0.0 0.00 0.03 0.03 91 1013.0
20260903193220 77 119 1.0 1.0 0.00 0.03 0.03 91 1013.2
20260903192716 76 134 0.0 0.0 0.00 0.03 0.03 91 1013.3
20260903192211 76 95 0.0 1.0 0.00 0.03 0.03 91 1013.4
20260903191708 76 128 0.0 0.0 0.00 0.03 0.03 91 1013.7
20260903191203 76 82 1.0 3.0 0.05 0.03 0.03 91 1013.8
20260903190657 76 122 0.0 0.0 0.05 0.03 0.03 92 1013.9
20260903190157 76 122 0.0 0.0 0.00 0.02 0.02 91 1014.0
20260903185652 76 119 0.0 0.0 0.00 0.02 0.02 90 1014.3
20260903185147 76 102 0.0 1.0 0.00 0.02 0.02 89 1014.4
20260903184643 77 124 1.0 1.0 0.00 0.02 0.02 89 1014.5
20260903184139 77 145 1.0 1.0 0.00 0.02 0.02 89 1014.6
20260903183637 77 126 0.0 0.0 0.00 0.02 0.02 89 1014.6
20260903183133 77 281 1.0 2.0 0.00 0.02 0.02 88 1014.8
20260903182632 77 27 2.0 2.0 0.00 0.02 0.02 89 1014.8
20260903182128 77 141 1.0 2.0 0.07 0.02 0.02 89 1014.9
20260903181626 79 76 2.0 2.0 0.07 0.02 0.02 88 1014.5
20260903181121 81 236 3.0 5.0 0.00 0.01 0.01 84 1014.6
20260903180616 82 186 1.0 1.0 0.00 0.01 0.01 81 1014.8
20260903180111 82 148 0.0 1.0 0.00 0.01 0.01 83 1014.7
20260903175610 81 129 0.0 1.0 0.00 0.01 0.01 83 1014.4
20260903175109 82 145 0.0 1.0 0.00 0.01 0.01 83 1014.3
20260903174604 82 86 1.0 1.0 0.00 0.01 0.01 83 1014.2
20260903174059 83 138 0.0 0.0 0.00 0.01 0.01 83 1013.9
20260903173554 83 115 0.0 0.0 0.00 0.01 0.01 82 1013.9
20260903173050 84 207 2.0 3.0 0.00 0.01 0.01 81 1013.7
20260903172544 84 135 0.0 0.0 0.00 0.01 0.01 81 1013.4
20260903172040 84 223 0.0 1.0 0.00 0.01 0.01 81 1013.1
20260903171534 84 155 0.0 0.0 0.00 0.01 0.01 81 1013.0
20260903171025 85 100 0.0 0.0 0.00 0.01 0.01 80 1013.3
20260903170523 86 123 0.0 0.0 0.00 0.01 0.01 80 1013.0
20260903170019 86 162 1.0 2.0 0.00 0.01 0.01 78 1012.8
20260903165511 86 115 0.0 1.0 0.00 0.01 0.01 79 1012.7
20260903165007 86 104 2.0 2.0 0.00 0.01 0.01 78 1012.2
20260903164507 86 139 1.0 2.0 0.00 0.01 0.01 78 1011.9
20260903164002 87 270 4.0 5.0 0.00 0.01 0.01 79 1011.9
20260903163456 87 120 1.0 1.0 0.00 0.01 0.01 79 1012.1
20260903162953 87 140 1.0 1.0 0.00 0.01 0.01 79 1011.6
20260903162449 87 131 0.0 1.0 0.00 0.01 0.01 81 1011.5
20260903161944 86 200 2.0 3.0 0.00 0.01 0.01 82 1011.7
20260903161440 86 148 2.0 2.0 0.00 0.01 0.01 82 1011.9
20260903160936 85 148 1.0 1.0 0.00 0.01 0.01 84 1012.1
20260903160434 84 137 0.0 1.0 0.00 0.01 0.01 85 1011.8
20260903155933 84 184 1.0 1.0 0.00 0.01 0.01 85 1011.9
20260903155428 85 148 0.0 0.0 0.00 0.01 0.01 86 1012.1
20260903154924 84 130 0.0 1.0 0.00 0.01 0.01 86 1012.0
20260903154420 84 177 1.0 2.0 0.00 0.01 0.01 85 1012.0
20260903153915 84 151 0.0 1.0 0.00 0.01 0.01 86 1011.9
20260903153410 84 129 0.0 0.0 0.00 0.01 0.01 86 1012.1
20260903152907 84 128 0.0 1.0 0.00 0.01 0.01 86 1012.0
20260903152403 84 136 0.0 0.0 0.00 0.01 0.01 87 1012.2
20260903151858 83 133 0.0 0.0 0.00 0.01 0.01 87 1012.5
20260903151353 83 140 0.0 0.0 0.00 0.01 0.01 88 1012.4
20260903150852 83 141 0.0 1.0 0.00 0.01 0.01 88 1012.5
20260903150347 83 145 0.0 0.0 0.00 0.01 0.01 88 1012.5
20260903145842 82 168 0.0 0.0 0.00 0.01 0.01 88 1012.6
20260903145337 82 134 0.0 0.0 0.00 0.01 0.01 89 1012.6
20260903144836 82 131 1.0 1.0 0.00 0.01 0.01 89 1012.5
20260903144332 82 137 0.0 0.0 0.00 0.01 0.01 90 1012.6
20260903143827 82 133 0.0 0.0 0.00 0.01 0.01 90 1012.4
20260903143324 82 137 0.0 0.0 0.00 0.01 0.01 91 1012.4
20260903142819 82 142 0.0 1.0 0.00 0.01 0.01 91 1012.8
20260903142315 82 132 0.0 0.0 0.00 0.01 0.01 92 1012.5
20260903141811 81 144 0.0 0.0 0.00 0.01 0.01 94 1012.6
20260903141307 80 136 0.0 0.0 0.00 0.01 0.01 97 1012.4
20260903140806 79 142 0.0 0.0 0.00 0.01 0.01 99 1012.3
20260903140301 78 128 0.0 0.0 0.00 0.01 0.01 99 1012.3
20260903135757 77 136 0.0 0.0 0.00 0.01 0.01 99 1012.5
20260903135253 77 154 0.0 0.0 0.00 0.01 0.01 99 1012.6
20260903134751 76 124 0.0 0.0 0.00 0.01 0.01 99 1012.6
20260903134247 76 131 0.0 0.0 0.00 0.01 0.01 99 1012.6
20260903133744 75 131 0.0 0.0 0.00 0.01 0.01 99 1012.7
20260903133240 75 130 0.0 0.0 0.00 0.01 0.01 99 1012.6
20260903132735 75 135 0.0 0.0 0.00 0.01 0.01 99 1012.9
20260903132229 75 133 0.0 0.0 0.00 0.01 0.01 99 1012.7
20260903131724 75 130 0.0 0.0 0.00 0.01 0.01 99 1012.6
20260903131219 74 131 0.0 0.0 0.00 0.01 0.01 99 1012.7
20260903130713 74 141 0.0 0.0 0.00 0.01 0.01 99 1012.7
20260903130208 75 135 0.0 0.0 0.00 0.01 0.01 99 1012.8
20260903125706 75 161 0.0 0.0 0.00 0.01 0.01 99 1012.9
20260903125202 74 152 0.0 0.0 0.00 0.01 0.01 99 1012.6
20260903124701 74 138 0.0 0.0 0.05 0.01 0.01 99 1012.7
20260903124156 74 143 0.0 0.0 0.05 0.01 0.01 99 1012.6
20260903123655 74 141 0.0 0.0 0.00 0.00 0.00 99 1012.7
20260903123154 74 132 0.0 0.0 0.00 0.00 0.00 99 1012.9
20260903122654 74 133 0.0 0.0 0.00 0.00 0.00 99 1012.8
20260903122148 74 134 0.0 0.0 0.00 0.00 0.00 99 1012.7
20260903121647 74 129 0.0 0.0 0.00 0.00 0.00 99 1012.5
20260903121144 74 142 0.0 0.0 0.00 0.00 0.00 99 1012.6
20260903120642 74 140 0.0 0.0 0.00 0.00 0.00 99 1012.5
20260903120137 73 122 0.0 0.0 0.00 0.00 0.00 99 1012.7
20260903115635 73 133 0.0 0.0 0.00 0.00 0.00 99 1012.9
20260903115131 73 126 0.0 0.0 0.00 0.00 0.00 99 1013.1
20260903114626 73 216 2.0 2.0 0.00 0.00 0.00 99 1013.4
20260903114121 73 136 0.0 0.0 0.00 0.00 0.00 99 1012.8
20260903113616 73 128 0.0 0.0 0.00 0.00 0.00 99 1012.7
20260903113113 73 127 0.0 0.0 0.00 0.00 0.00 99 1012.8
20260903112608 72 128 0.0 0.0 0.00 0.00 0.00 99 1012.6
20260903112103 72 127 0.0 0.0 0.00 0.00 0.00 99 1012.6
20260903111602 72 125 0.0 0.0 0.00 0.00 0.00 99 1012.8
20260903111058 72 131 0.0 0.0 0.00 0.00 0.00 99 1012.6
20260903110554 72 129 0.0 0.0 0.00 0.00 0.00 99 1012.4
20260903110048 72 131 0.0 0.0 0.00 0.00 0.00 99 1012.6
20260903105543 72 131 0.0 0.0 0.00 0.00 0.00 99 1012.3
20260903105038 72 131 0.0 0.0 0.00 0.00 0.00 99 1012.5
20260903104537 72 131 0.0 0.0 0.00 0.00 0.00 99 1012.4
20260903104033 72 131 0.0 0.0 0.00 0.00 0.00 99 1012.6
20260903103529 72 131 0.0 0.0 0.00 0.00 0.00 99 1012.7
20260903103026 72 131 0.0 0.0 0.00 0.00 0.00 99 1012.6
20260903102520 72 129 0.0 0.0 0.00 0.00 0.00 99 1012.5
20260903102020 72 127 0.0 0.0 0.00 0.00 0.00 99 1012.6
20260903101514 72 131 0.0 0.0 0.00 0.00 0.00 99 1012.6
20260903101010 72 132 0.0 0.0 0.00 0.00 0.00 99 1012.6
20260903100505 72 132 0.0 0.0 0.00 0.00 0.00 99 1012.7
20260903100003 73 135 0.0 0.0 0.00 0.00 0.00 99 1012.5
20260903095456 73 127 0.0 0.0 0.00 0.00 0.00 99 1012.5
20260903094951 73 135 0.0 0.0 0.00 0.00 0.00 99 1012.5
20260903094450 73 127 0.0 0.0 0.00 0.00 0.00 99 1012.4
20260903093947 73 127 0.0 0.0 0.00 0.00 0.00 99 1012.5
20260903093442 73 127 0.0 0.0 0.00 0.00 0.00 99 1012.4
20260903092938 73 127 0.0 0.0 0.00 0.00 0.00 99 1012.5
20260903092437 73 127 0.0 0.0 0.00 0.00 0.00 99 1012.4
20260903091936 73 127 0.0 0.0 0.00 0.00 0.00 99 1012.5
20260903091434 73 127 0.0 0.0 0.00 0.00 0.00 99 1012.4
20260903090930 73 127 0.0 0.0 0.00 0.00 0.00 99 1012.7
20260903090426 73 119 0.0 0.0 0.00 0.00 0.00 99 1012.6
20260903085924 73 127 0.0 0.0 0.00 0.00 0.00 99 1012.6
20260903085423 73 127 0.0 0.0 0.00 0.00 0.00 99 1012.7
20260903084922 73 127 0.0 0.0 0.00 0.00 0.00 99 1012.6
20260903084421 73 127 0.0 0.0 0.00 0.00 0.00 99 1012.6
20260903083916 73 127 0.0 0.0 0.00 0.00 0.00 99 1012.4
20260903083413 73 127 0.0 0.0 0.00 0.00 0.00 99 1012.3
20260903082911 73 127 0.0 0.0 0.00 0.00 0.00 99 1012.4
20260903082406 73 127 0.0 0.0 0.00 0.00 0.00 99 1012.4
20260903081902 73 128 0.0 0.0 0.00 0.00 0.00 99 1012.7
20260903081356 73 133 0.0 0.0 0.00 0.00 0.00 99 1012.4
20260903080853 73 128 0.0 0.0 0.00 0.00 0.00 99 1012.4
20260903080350 73 127 0.0 0.0 0.00 0.00 0.00 99 1012.6
20260903075849 73 128 0.0 0.0 0.00 0.00 0.00 99 1012.4
20260903075345 73 128 0.0 0.0 0.00 0.00 0.00 99 1012.4
20260903074839 73 128 0.0 0.0 0.00 0.00 0.00 99 1012.5
20260903074339 73 128 0.0 0.0 0.00 0.00 0.00 99 1012.2
20260903073835 73 128 0.0 0.0 0.00 0.00 0.00 99 1012.4
20260903073330 73 128 0.0 0.0 0.00 0.00 0.00 99 1012.2
20260903072826 73 128 0.0 0.0 0.00 0.00 0.00 99 1012.3
20260903072321 73 129 0.0 0.0 0.00 0.00 0.00 99 1012.4
20260903071818 73 129 0.0 0.0 0.00 0.00 0.00 99 1012.3
20260903071314 74 129 0.0 0.0 0.00 0.00 0.00 99 1012.4
20260903070808 74 129 0.0 0.0 0.00 0.00 0.00 99 1012.2
20260903070304 74 129 0.0 0.0 0.00 0.00 0.00 99 1012.3
20260903065758 74 129 0.0 0.0 0.00 0.00 0.00 99 1012.2
20260903065258 74 129 0.0 0.0 0.00 0.00 0.00 99 1012.2
20260903064757 74 133 0.0 0.0 0.00 0.00 0.00 99 1012.5
20260903064253 74 136 0.0 0.0 0.00 0.00 0.00 99 1012.3
20260903063749 74 133 0.0 0.0 0.00 0.00 0.00 99 1012.2
20260903063243 74 133 0.0 0.0 0.00 0.00 0.00 99 1012.3
20260903062740 74 135 0.0 0.0 0.00 0.00 0.00 99 1012.3
20260903062239 74 141 0.0 0.0 0.00 0.00 0.00 99 1012.5
20260903061735 74 128 0.0 0.0 0.00 0.00 0.00 99 1012.4
20260903061234 74 129 0.0 0.0 0.00 0.00 0.00 99 1012.2
20260903060730 75 129 0.0 0.0 0.00 0.00 0.00 99 1012.2
20260903060230 75 138 0.0 0.0 0.00 0.00 0.00 99 1012.3
20260903055727 75 134 0.0 0.0 0.00 0.00 0.00 99 1012.3
20260903055226 75 128 0.0 0.0 0.00 0.00 0.00 99 1012.3
20260903054721 75 128 0.0 0.0 0.00 0.00 0.00 99 1012.3
20260903054216 75 128 0.0 0.0 0.00 0.00 0.00 99 1012.3
20260903053713 75 128 0.0 0.0 0.00 0.00 0.00 99 1012.3
20260903053207 75 130 0.0 0.0 0.00 0.00 0.00 99 1012.2
20260903052703 75 133 0.0 0.0 0.00 0.00 0.00 99 1012.3
20260903052158 75 133 0.0 0.0 0.00 0.00 0.00 99 1012.2
20260903051653 75 129 0.0 0.0 0.00 0.00 0.00 99 1012.3
20260903051149 75 128 0.0 0.0 0.00 0.00 0.00 99 1012.2
20260903050644 75 128 0.0 0.0 0.00 0.00 0.00 99 1012.1
20260903050138 75 126 0.0 0.0 0.00 0.00 0.00 99 1012.0
20260903045638 75 128 0.0 0.0 0.00 0.00 0.00 99 1012.0
20260903045135 75 128 0.0 0.0 0.00 0.00 0.00 99 1012.0
20260903044630 75 128 0.0 0.0 0.00 0.00 0.00 99 1012.0
20260903044125 75 128 0.0 0.0 0.00 0.00 0.00 99 1011.9
20260903043621 76 128 0.0 0.0 0.00 0.00 0.00 99 1012.1
20260903043120 76 128 0.0 0.0 0.00 0.00 0.00 99 1012.0
20260903042615 76 128 0.0 0.0 0.00 0.00 0.00 99 1012.1
20260903042110 76 126 0.0 0.0 0.00 0.00 0.00 99 1011.9
20260903041607 76 128 0.0 0.0 0.00 0.00 0.00 99 1012.1
20260903041102 76 130 0.0 0.0 0.00 0.00 0.00 99 1011.8
20260903040600 76 128 0.0 0.0 0.00 0.00 0.00 99 1011.8
20260903040057 76 128 0.0 0.0 0.00 0.03 0.03 99 1011.8
20260903035553 76 128 0.0 0.0 0.00 0.03 0.03 99 1011.6
20260903035049 76 130 0.0 0.0 0.00 0.03 0.03 99 1011.8
20260903034543 76 133 0.0 0.0 0.00 0.03 0.03 99 1011.7
20260903034039 76 133 0.0 0.0 0.00 0.03 0.03 99 1011.7
20260903033533 76 133 0.0 0.0 0.00 0.03 0.03 99 1012.0
20260903033029 76 123 0.0 0.0 0.00 0.03 0.03 99 1012.0
20260903032523 76 126 0.0 0.0 0.00 0.03 0.03 99 1012.0
20260903032019 76 122 0.0 0.0 0.00 0.03 0.03 99 1011.9
20260903031513 76 136 0.0 0.0 0.00 0.03 0.03 99 1012.0
20260903031008 76 126 0.0 0.0 0.00 0.03 0.03 99 1011.8
20260903030504 76 127 0.0 0.0 0.00 0.03 0.03 99 1011.7
20260903025959 76 128 0.0 0.0 0.00 0.03 0.03 99 1011.8
20260903025455 76 122 0.0 0.0 0.00 0.03 0.03 99 1011.8
20260903024950 77 128 0.0 0.0 0.00 0.03 0.03 99 1012.0
20260903024449 77 128 0.0 0.0 0.00 0.03 0.03 99 1011.7
20260903023944 77 128 0.0 0.0 0.00 0.03 0.03 98 1011.8
20260903023440 77 115 0.0 0.0 0.00 0.03 0.03 98 1011.7
20260903022935 77 116 0.0 0.0 0.00 0.03 0.03 97 1012.1
20260903022434 77 127 0.0 0.0 0.07 0.03 0.03 96 1011.7
20260903021933 78 127 0.0 0.0 0.14 0.03 0.03 95 1012.1
20260903021428 79 129 0.0 0.0 0.12 0.02 0.02 93 1012.0
20260903020923 80 120 0.0 0.0 0.12 0.02 0.02 88 1012.6
20260903020419 80 140 0.0 0.0 0.00 0.00 0.00 85 1012.5
20260903015913 80 129 0.0 0.0 0.00 0.00 0.00 85 1012.1
20260903015409 80 130 0.0 0.0 0.00 0.00 0.00 85 1011.9
20260903014904 81 129 0.0 0.0 0.00 0.00 0.00 85 1011.9
20260903014403 81 135 0.0 0.0 0.00 0.00 0.00 84 1012.0
20260903013858 81 131 0.0 0.0 0.00 0.00 0.00 83 1012.0
20260903013357 81 132 0.0 0.0 0.00 0.00 0.00 83 1012.1
20260903012857 81 128 0.0 0.0 0.00 0.00 0.00 82 1011.9
20260903012351 82 135 0.0 0.0 0.00 0.00 0.00 81 1011.6
20260903011850 82 135 0.0 0.0 0.00 0.00 0.00 81 1011.6
20260903011344 82 131 0.0 0.0 0.00 0.00 0.00 81 1011.4
20260903010840 82 128 0.0 0.0 0.00 0.00 0.00 81 1011.4
20260903010335 82 131 0.0 0.0 0.00 0.00 0.00 81 1011.5
20260903005833 82 134 0.0 0.0 0.00 0.00 0.00 80 1011.5
20260903005329 83 129 0.0 0.0 0.00 0.00 0.00 79 1011.4
20260903004825 83 126 0.0 0.0 0.00 0.00 0.00 79 1011.0
20260903004320 83 133 0.0 0.0 0.00 0.00 0.00 78 1011.1